Temperature
13 14 14 14 13 13 12 13 13 13 13 15 13 13 14 14 13 11 11 11 10 10 9 9 8 8 8 7 7 6 6 5 5 4 4 4 4 3 3 3 2 2 2 2
13 13 13 13 13 12 12 12 12 13 13 14 14 13 13 13 12 11 11 10 9 9 8 8 8 8 7 6 6 5 4 4 4 4 3 3 3 2 2 2 2 1 1 1
12 11 12 13 12 12 12 12 13 13 13 13 13 11 12 12 11 11 10 10 9 8 8 7 7 6 6 5 4 3 3 3 3 2 2 2 1 1 0 0 -0 -0 -1 -1
10 12 13 13 12 12 12 12 13 12 11 11 10 11 12 13 12 11 10 8 7 7 7 6 5 4 4 3 2 2 2 2 2 1 1 0 -0 -0 -1 -1 -1 -2 -2 -2
9 10 12 12 12 12 13 10 11 11 11 12 11 11 11 12 12 11 9 7 6 6 5 4 3 3 3 2 2 2 2 2 1 0 -0 -1 -1 -1 -1 -2 -2 -3 -3 -3
8 9 11 12 12 13 13 10 10 10 10 10 10 8 9 10 10 9 7 5 5 5 4 3 3 2 2 2 2 1 1 0 -1 -1 -2 -2 -2 -2 -3 -3 -3 -3 -3 -3
8 9 9 10 11 12 11 10 8 9 9 9 9 8 9 9 8 7 6 6 5 4 3 3 2 2 1 1 0 -0 -1 -1 -2 -2 -2 -3 -3 -3 -3 -4 -4 -4 -5 -5
7 8 8 10 11 9 9 9 9 9 9 9 9 9 9 9 8 7 6 5 4 3 3 2 1 1 0 -0 -1 -1 -2 -2 -2 -2 -3 -3 -4 -4 -4 -5 -5 -5 -6 -7
8 8 9 10 10 10 10 9 9 9 9 9 9 9 8 7 6 5 4 3 3 2 1 0 -0 -0 -1 -1 -2 -2 -2 -2 -2 -3 -3 -4 -5 -5 -5 -6 -6 -7 -8 -8
9 8 8 9 9 9 9 9 8 8 8 8 7 7 7 6 5 3 2 2 1 1 0 -0 -1 -1 -1 -2 -2 -2 -3 -3 -3 -4 -5 -5 -5 -6 -6 -7 -8 -8 -8 -8
7 8 8 8 8 8 8 7 7 7 7 6 6 6 6 4 3 3 2 1 0 0 -0 -1 -1 -1 -2 -2 -3 -3 -3 -4 -4 -5 -6 -6 -6 -6 -7 -8 -9 -8 -8 -8
7 7 8 8 8 8 7 7 6 6 6 6 5 5 4 3 2 1 -0 -0 -0 -1 -1 -1 -2 -2 -2 -3 -4 -4 -4 -4 -5 -6 -6 -7 -7 -7 -7 -8 -9 -9 -8 -8
8 8 8 8 8 7 6 6 6 5 4 4 3 2 2 1 0 -0 -1 -1 -1 -1 -1 -2 -2 -2 -3 -3 -4 -4 -5 -6 -6 -7 -7 -8 -8 -9 -9 -9 -9 -9 -9 -9
8 8 7 7 7 6 5 4 3 3 2 1 0 -0 -0 -0 -1 -1 -1 -1 -1 -1 -1 -2 -3 -3 -4 -4 -5 -5 -6 -7 -7 -8 -8 -9 -9 -10 -10 -10 -10 -10 -9 -10
7 7 7 6 5 4 3 2 1 1 0 -0 -1 -1 -1 -1 -1 -1 -1 -1 -1 -2 -2 -3 -4 -4 -5 -5 -6 -6 -7 -8 -8 -9 -9 -9 -10 -10 -10 -10 -10 -10 -10 -10
7 6 6 6 5 4 4 3 2 1 0 -0 -1 -1 -1 -1 -1 -1 -1 -2 -3 -3 -3 -4 -4 -5 -5 -6 -6 -7 -8 -9 -9 -10 -10 -10 -10 -10 -10 -10 -10 -10 -10 -10
5 5 5 5 5 5 4 2 1 -0 -1 -1 -1 -1 -1 -1 -1 -2 -3 -3 -4 -4 -4 -5 -5 -5 -6 -6 -7 -8 -9 -9 -10 -10 -10 -10 -10 -10 -10 -10 -10 -10 -10 -10
5 5 5 5 4 3 2 1 0 -0 -1 -1 -1 -1 -1 -2 -2 -3 -4 -4 -3 -4 -4 -5 -5 -6 -6 -7 -8 -9 -10 -10 -10 -10 -10 -10 -10 -10 -10 -10 -11 -11 -11 -11
6 5 5 4 3 2 1 1 -0 -1 -1 -1 -1 -2 -2 -3 -3 -4 -4 -4 -4 -5 -5 -6 -6 -7 -7 -8 -10 -10 -10 -10 -10 -10 -11 -11 -10 -10 -11 -11 -11 -11 -11 -11
5 5 4 3 2 1 0 -0 -1 -1 -1 -2 -2 -2 -3 -3 -4 -4 -4 -5 -5 -6 -6 -7 -7 -8 -9 -9 -10 -11 -11 -11 -11 -11 -11 -11 -11 -11 -11 -11 -11 -11 -12 -12
4 4 3 2 1 0 -0 -1 -1 -1 -2 -2 -2 -3 -3 -3 -4 -5 -5 -5 -6 -6 -7 -7 -8 -8 -9 -10 -11 -11 -11 -11 -11 -11 -11 -11 -11 -12 -12 -12 -12 -12 -12 -12
3 3 2 1 0 -0 -1 -1 -2 -2 -2 -2 -3 -3 -4 -4 -5 -5 -6 -6 -7 -7 -8 -8 -9 -9 -10 -11 -11 -11 -11 -11 -11 -12 -12 -12 -12 -12 -12 -12 -12 -12 -12 -12
2 2 1 1 -0 -1 -1 -2 -2 -2 -2 -3 -3 -4 -5 -5 -6 -7 -7 -7 -8 -8 -9 -9 -9 -9 -11 -11 -11 -11 -11 -11 -11 -12 -12 -12 -13 -12 -12 -12 -13 -13 -13 -13
1 1 0 -0 -1 -2 -2 -2 -3 -3 -3 -4 -4 -5 -6 -6 -7 -7 -8 -8 -9 -9 -9 -9 -9 -10 -11 -11 -11 -11 -11 -12 -12 -12 -12 -12 -13 -13 -13 -13 -13 -13 -13 -13
0 0 -0 -1 -2 -2 -3 -3 -4 -4 -4 -5 -6 -6 -6 -7 -8 -9 -9 -9 -9 -9 -10 -10 -10 -10 -10 -10 -11 -11 -12 -12 -13 -13 -13 -13 -13 -13 -13 -13 -13 -13 -13 -13
-1 -1 -2 -2 -3 -3 -4 -4 -5 -5 -6 -6 -6 -7 -7 -8 -8 -9 -9 -10 -10 -10 -10 -10 -10 -11 -11 -11 -11 -12 -12 -13 -13 -13 -14 -14 -13 -13 -13 -13 -13 -13 -13 -13
-2 -2 -3 -3 -4 -4 -5 -5 -6 -6 -7 -7 -7 -8 -8 -9 -9 -10 -10 -10 -10 -10 -10 -10 -11 -11 -11 -12 -12 -12 -13 -13 -13 -14 -14 -14 -14 -14 -14 -14 -14 -14 -13 -13
Wind_Speed
3 2 3 5 7 8 7 7 6 4 5 6 8 8 6 6 7 12 10 9 8 7 6 5 6 6 6 6 7 8 8 8 8 8 9 10 12 13 14 14 15 15 16 17
1 3 1 3 5 6 6 5 6 3 8 5 6 2 1 3 10 12 11 9 8 7 6 5 4 4 5 6 6 6 6 6 8 9 11 12 13 14 15 15 16 16 16 17
1 3 4 4 5 6 5 6 6 5 4 5 6 6 3 4 9 10 9 8 7 6 5 4 4 4 5 5 6 6 6 7 9 11 12 13 13 14 14 15 15 15 15 16
1 1 3 2 2 5 5 3 1 4 6 4 2 2 2 1 9 11 9 7 6 4 3 4 3 3 3 4 5 5 6 7 10 11 12 12 12 13 13 13 13 14 15 16
2 3 5 2 1 4 5 4 3 3 2 2 1 2 3 2 3 6 7 7 5 4 3 3 3 3 5 5 6 8 8 9 10 10 12 13 13 14 13 13 14 14 14 15
3 2 5 4 3 2 2 3 3 4 4 5 3 3 4 2 6 9 9 6 5 4 3 3 4 5 7 7 8 8 9 9 9 9 11 12 13 12 12 13 14 15 16 15
3 3 6 5 4 1 3 3 2 4 4 5 2 3 1 7 7 7 7 6 6 4 3 4 5 6 7 7 7 8 8 8 8 8 10 11 11 12 13 14 14 14 15 15
5 4 7 3 0 2 4 3 2 4 3 2 2 3 5 7 9 8 6 5 5 3 3 4 5 6 6 7 8 8 8 9 9 9 10 11 12 12 12 13 13 14 14 14
8 7 2 2 4 4 5 5 4 3 4 2 5 6 6 5 4 4 5 5 3 2 2 3 4 4 5 7 8 8 8 9 9 10 10 10 10 12 12 11 11 12 13 13
3 4 5 4 3 3 4 5 7 6 4 2 4 5 7 6 5 5 5 4 2 2 3 4 4 5 6 7 7 7 9 10 10 9 11 10 9 10 11 11 11 12 13 14
4 4 1 5 5 6 6 5 4 4 4 4 3 1 3 3 4 5 5 3 2 2 3 5 6 7 7 7 7 8 9 9 9 8 10 10 11 11 12 12 14 16 14 14
5 4 3 4 1 3 3 3 5 7 5 2 2 1 3 3 4 4 3 2 1 2 4 5 6 8 7 7 7 8 9 9 9 10 9 10 12 15 19 20 26 26 26 22
5 5 4 1 2 2 1 3 5 3 1 2 1 2 4 4 4 3 2 1 3 4 6 6 7 9 9 8 7 7 9 10 10 10 10 11 12 13 16 18 22 24 25 26
3 4 3 2 2 5 5 3 2 2 2 2 4 4 3 3 2 1 1 3 5 6 6 7 8 10 9 8 8 8 9 13 11 10 10 11 12 12 12 15 16 15 19 24
4 3 3 3 5 3 3 5 6 5 5 4 3 4 4 3 3 3 3 4 6 8 8 8 9 11 10 9 9 10 10 9 9 9 10 12 12 12 12 13 14 14 14 17
4 1 1 2 5 6 6 5 5 5 4 5 5 5 4 4 3 3 5 6 6 7 9 8 10 12 10 9 10 10 9 14 14 10 10 11 11 12 12 13 13 13 14 13
5 3 4 5 5 5 5 5 7 6 6 6 6 5 4 1 3 5 6 7 7 8 9 10 12 11 10 9 10 9 9 10 15 12 10 11 11 12 12 12 11 12 12 16
5 4 4 5 5 5 5 5 6 5 5 6 6 4 2 3 5 6 7 8 7 8 9 10 10 11 10 10 10 9 8 9 9 10 11 11 12 12 11 12 12 13 12 14
6 5 5 6 6 6 5 5 6 6 5 5 5 4 5 6 6 7 6 7 8 9 9 9 15 15 11 13 15 10 9 10 11 11 11 14 14 11 10 11 12 12 11 10
4 5 6 6 5 5 5 6 6 6 6 5 5 5 6 7 6 6 6 7 9 9 10 12 13 10 10 12 17 11 10 10 11 11 12 13 12 11 11 12 14 12 12 12
7 7 7 6 6 6 7 7 7 7 7 7 7 6 6 6 6 6 6 8 9 10 12 15 12 10 10 14 16 10 9 10 11 11 11 12 12 12 12 12 12 13 13 12
5 5 6 6 6 7 7 7 8 8 7 6 5 4 4 6 6 6 7 8 10 13 11 9 9 14 17 20 12 10 10 11 11 10 10 10 10 11 12 11 11 11 11 11
7 7 7 7 8 7 6 7 7 7 6 5 4 4 5 5 5 6 8 8 8 14 13 10 16 23 25 16 10 10 10 11 10 10 10 10 10 10 11 11 11 11 10 10
7 8 7 6 6 6 7 7 6 5 4 3 4 4 4 4 5 6 8 13 16 18 13 16 22 25 22 10 9 10 10 10 10 10 11 12 10 9 10 10 11 10 10 11
7 6 4 5 6 6 6 4 3 2 1 3 4 5 4 4 5 8 7 9 16 17 12 17 23 23 14 10 11 11 10 10 12 12 10 10 10 10 11 11 11 12 11 9
4 4 4 5 3 2 3 3 2 1 1 3 4 4 5 5 6 8 8 10 12 15 12 11 13 14 11 12 12 12 11 12 14 13 12 11 11 11 11 11 11 11 10 9
1 1 1 1 1 2 3 2 1 1 2 3 4 5 5 5 7 9 10 10 10 11 11 11 12 13 13 13 13 12 11 11 13 14 12 11 10 10 11 11 10 9 9 9
Wind_Direction
115 117 133 175 186 186 184 181 198 203 213 239 254 261 260 239 162 148 163 160 141 133 120 101 82 65 48 27 16 12 8 6 355 347 347 346 344 341 337 335 334 332 330 328
58 17 63 230 238 230 221 202 233 277 283 256 263 288 210 168 157 166 169 154 140 135 123 101 88 73 49 27 11 5 2 354 348 352 350 347 343 339 336 333 331 330 328 325
213 318 328 257 208 203 198 191 181 216 265 357 357 29 50 195 181 172 165 156 148 134 129 123 100 64 39 12 1 1 356 353 355 352 346 341 336 332 330 327 324 324 321 321
150 2 236 255 288 181 140 85 5 357 346 358 53 103 8 271 183 176 163 138 127 129 98 74 53 45 40 19 359 350 354 356 351 346 339 333 329 326 322 321 322 319 318 319
134 201 276 298 342 118 121 71 35 72 7 335 129 91 307 305 146 140 121 123 133 127 108 94 47 22 33 11 358 360 355 348 341 336 331 329 326 323 320 319 316 314 316 315
133 191 238 214 226 241 103 151 344 358 5 331 352 331 283 159 106 108 112 118 114 100 92 73 32 27 26 5 358 348 336 329 327 324 322 320 316 314 314 314 312 314 311 311
157 228 269 254 251 164 178 217 25 56 35 20 354 273 177 118 106 123 137 135 122 119 107 65 40 28 13 354 338 322 316 313 312 313 315 313 313 313 312 310 309 308 306 307
154 210 251 276 271 161 169 122 91 62 50 71 175 170 154 151 161 164 141 122 116 103 76 52 33 23 351 328 313 311 311 310 312 312 312 313 309 308 309 309 310 309 307 306
191 204 177 36 113 134 140 151 177 189 218 196 197 202 187 169 156 133 118 118 117 114 47 24 20 7 327 308 309 312 310 307 308 310 308 305 306 309 310 310 309 308 309 310
233 183 137 132 133 174 176 194 212 214 221 243 249 227 186 166 151 130 119 143 152 70 9 349 340 322 304 302 309 312 309 306 304 304 310 311 308 307 307 309 308 307 307 307
252 281 138 175 206 209 224 244 259 256 241 247 259 224 139 143 153 147 154 152 82 21 336 316 315 309 306 305 311 308 301 298 302 305 307 310 309 307 305 301 301 308 309 307
226 222 180 228 232 182 193 226 249 243 244 46 37 148 144 154 154 152 140 105 13 321 306 297 299 298 299 296 290 293 306 310 310 310 308 310 310 307 303 306 311 313 313 310
190 194 196 217 95 101 91 17 4 358 327 168 170 207 175 165 160 129 94 356 301 297 299 301 307 306 299 288 287 290 297 303 306 308 309 308 306 303 305 310 313 315 314 314
160 151 148 153 82 57 47 16 327 302 286 241 216 197 175 152 139 127 271 283 294 301 306 312 307 298 295 292 293 292 294 301 302 298 298 297 297 300 305 310 314 314 314 313
140 118 130 115 120 147 232 252 255 260 255 240 211 187 178 180 216 249 272 302 325 320 308 299 293 294 300 298 299 297 294 293 291 291 295 300 302 303 305 305 307 308 310 312
154 93 21 218 228 239 247 255 263 266 239 218 206 197 194 200 238 297 322 326 311 293 291 290 289 294 298 296 296 294 290 296 304 304 301 301 300 300 302 304 303 303 307 312
170 224 218 239 252 264 257 240 230 227 208 203 201 193 189 233 314 305 296 286 275 275 282 286 289 294 295 294 291 293 293 296 303 305 297 294 296 298 299 298 298 301 305 309
205 197 208 235 249 258 254 229 222 211 195 188 180 174 209 248 264 277 281 286 289 290 289 288 291 301 304 302 297 295 295 298 299 296 294 294 295 298 301 301 299 299 302 307
191 209 233 246 251 250 240 218 207 196 182 168 169 210 240 255 262 268 281 297 301 301 302 304 308 311 303 301 306 306 300 296 295 293 293 296 298 297 294 296 298 299 303 311
226 229 233 240 240 225 222 212 194 191 193 184 202 225 249 264 276 289 296 290 285 284 292 298 302 302 299 303 305 303 298 297 296 296 298 301 303 301 298 300 304 309 311 310
236 232 228 224 227 226 217 201 190 201 206 203 212 229 254 279 291 294 298 294 291 294 304 307 306 301 302 306 305 306 303 300 299 300 303 304 305 305 304 304 306 305 304 305
261 258 251 237 226 226 218 205 203 207 208 215 228 249 273 286 292 289 277 277 288 300 305 299 298 302 312 310 312 309 305 303 304 304 303 302 301 300 298 296 294 294 295 295
267 263 255 238 226 225 218 215 218 218 223 232 249 263 267 271 276 288 294 292 296 301 306 301 305 310 313 314 311 307 304 301 300 300 298 295 293 290 288 289 291 293 293 293
262 259 250 237 214 208 223 226 221 219 222 242 261 271 279 291 289 275 281 297 306 304 304 304 308 312 315 319 307 300 297 297 297 294 291 291 290 288 288 291 290 288 288 290
260 262 246 210 209 219 222 204 194 201 226 283 291 296 295 281 280 288 288 292 302 304 302 304 309 312 312 303 299 298 297 294 291 293 297 298 295 292 290 289 287 289 292 293
245 246 239 223 219 204 185 175 181 183 257 293 295 296 292 285 285 293 292 294 300 303 305 302 302 302 303 300 297 296 297 297 297 297 296 293 289 287 287 287 286 287 285 283
249 212 166 154 152 143 145 139 133 304 312 300 292 293 294 295 297 301 301 301 300 298 298 298 299 300 299 299 298 298 299 297 295 296 296 292 287 284 283 284 284 283 281 279
Height
1467 1467 1469 1472 1474 1477 1480 1480 1483 1481 1480 1475 1474 1473 1471 1469 1469 1474 1476 1477 1477 1477 1478 1478 1478 1477 1476 1475 1474 1471 1467 1463 1459 1454 1449 1445 1440 1435 1431 1426 1421 1415 1410 1404
1471 1471 1471 1473 1472 1474 1476 1477 1478 1478 1476 1469 1468 1468 1468 1468 1468 1470 1472 1474 1475 1475 1476 1476 1475 1474 1473 1472 1470 1467 1463 1459 1455 1451 1446 1441 1437 1433 1428 1423 1417 1411 1406 1401
1475 1475 1471 1473 1469 1471 1471 1471 1472 1474 1471 1467 1466 1468 1469 1468 1468 1469 1471 1472 1473 1473 1474 1475 1474 1472 1469 1467 1465 1462 1459 1455 1451 1446 1442 1438 1433 1430 1425 1419 1413 1407 1402 1397
1479 1476 1476 1468 1461 1461 1465 1467 1466 1468 1470 1468 1468 1468 1468 1468 1469 1469 1470 1471 1473 1474 1474 1474 1473 1469 1466 1464 1462 1458 1454 1450 1446 1441 1437 1434 1430 1425 1420 1414 1408 1404 1397 1391
1481 1481 1470 1465 1461 1460 1463 1473 1469 1469 1469 1467 1467 1468 1467 1467 1467 1468 1469 1470 1472 1472 1473 1471 1469 1466 1462 1460 1458 1455 1451 1447 1442 1438 1433 1429 1425 1420 1416 1409 1404 1398 1392 1386
1483 1482 1475 1465 1459 1458 1461 1474 1471 1469 1469 1469 1468 1471 1468 1465 1465 1466 1467 1469 1471 1471 1470 1467 1465 1462 1459 1457 1453 1450 1446 1442 1438 1434 1429 1424 1420 1416 1411 1405 1399 1393 1387 1381
1482 1481 1473 1462 1457 1459 1471 1474 1470 1468 1468 1467 1467 1468 1466 1464 1464 1465 1466 1467 1467 1467 1466 1463 1460 1458 1456 1454 1450 1446 1442 1439 1435 1430 1425 1421 1416 1412 1406 1400 1393 1387 1382 1376
1482 1482 1479 1461 1459 1465 1468 1467 1467 1466 1467 1467 1467 1466 1464 1463 1463 1464 1464 1464 1464 1463 1460 1458 1456 1455 1453 1451 1446 1442 1438 1435 1431 1425 1421 1415 1411 1406 1400 1394 1387 1381 1375 1369
1468 1468 1461 1458 1459 1461 1463 1464 1464 1465 1465 1465 1464 1463 1463 1463 1463 1462 1461 1461 1460 1459 1457 1456 1454 1452 1449 1445 1441 1436 1433 1429 1424 1420 1415 1410 1406 1400 1394 1388 1382 1376 1371 1364
1458 1457 1457 1458 1459 1460 1460 1461 1461 1461 1461 1462 1462 1461 1460 1460 1459 1459 1459 1458 1457 1455 1454 1453 1451 1448 1444 1440 1435 1432 1428 1424 1419 1414 1409 1405 1401 1396 1389 1383 1378 1373 1367 1361
1457 1454 1456 1459 1458 1458 1458 1459 1458 1458 1459 1459 1458 1457 1457 1456 1455 1454 1453 1453 1452 1452 1451 1449 1447 1443 1440 1436 1432 1428 1423 1418 1413 1409 1405 1399 1394 1390 1385 1379 1376 1371 1364 1357
1453 1453 1454 1455 1456 1455 1456 1456 1456 1456 1454 1453 1453 1453 1453 1452 1452 1451 1450 1449 1449 1449 1447 1444 1441 1438 1435 1431 1427 1422 1417 1413 1409 1405 1399 1393 1387 1382 1376 1374 1369 1364 1358 1353
1448 1451 1452 1452 1453 1453 1453 1452 1451 1450 1450 1450 1449 1449 1449 1448 1447 1447 1447 1447 1446 1444 1442 1439 1435 1433 1430 1426 1421 1417 1413 1408 1403 1399 1393 1388 1382 1376 1368 1362 1360 1356 1351 1346
1447 1449 1449 1450 1450 1450 1449 1449 1448 1447 1445 1445 1444 1444 1444 1444 1443 1444 1444 1443 1441 1439 1437 1434 1431 1428 1425 1420 1415 1411 1407 1403 1398 1392 1387 1382 1376 1371 1366 1359 1352 1346 1343 1339
1445 1446 1447 1447 1447 1446 1445 1444 1442 1441 1440 1439 1440 1440 1440 1440 1440 1440 1440 1438 1437 1435 1433 1430 1426 1423 1419 1414 1409 1405 1400 1396 1391 1386 1381 1376 1371 1366 1361 1356 1350 1343 1337 1332
1443 1444 1444 1444 1443 1441 1440 1438 1437 1437 1437 1437 1436 1436 1436 1437 1437 1437 1436 1434 1433 1430 1428 1424 1420 1416 1412 1407 1402 1398 1393 1389 1385 1380 1375 1370 1366 1361 1356 1351 1345 1339 1334 1328
1441 1441 1440 1439 1438 1436 1436 1435 1434 1434 1434 1434 1434 1434 1434 1434 1433 1433 1431 1430 1428 1426 1423 1418 1413 1409 1405 1400 1396 1391 1386 1381 1377 1374 1369 1364 1360 1355 1350 1346 1341 1335 1330 1325
1437 1437 1436 1435 1434 1433 1432 1431 1430 1430 1430 1431 1431 1431 1430 1430 1429 1428 1427 1425 1422 1418 1416 1411 1407 1402 1398 1394 1389 1384 1379 1374 1371 1367 1362 1358 1354 1350 1346 1341 1336 1330 1325 1320
1433 1433 1432 1431 1430 1428 1427 1426 1426 1426 1426 1426 1426 1426 1426 1426 1425 1423 1420 1417 1414 1410 1406 1403 1400 1395 1391 1386 1382 1377 1372 1368 1364 1360 1355 1352 1347 1343 1339 1335 1330 1325 1320 1315
1431 1430 1428 1426 1425 1424 1423 1422 1422 1422 1422 1422 1422 1422 1422 1422 1419 1417 1414 1411 1409 1404 1399 1395 1391 1387 1383 1378 1374 1370 1366 1362 1358 1353 1349 1345 1341 1337 1333 1329 1325 1320 1315 1311
1428 1426 1423 1421 1420 1419 1418 1418 1418 1418 1418 1418 1418 1418 1416 1414 1413 1410 1407 1404 1402 1398 1394 1389 1385 1379 1374 1371 1367 1363 1359 1355 1351 1346 1342 1338 1334 1331 1327 1323 1319 1314 1310 1305
1423 1422 1419 1417 1416 1415 1415 1415 1415 1414 1414 1413 1412 1411 1410 1408 1406 1404 1402 1399 1395 1391 1386 1381 1377 1372 1368 1365 1360 1356 1352 1348 1343 1339 1335 1331 1327 1323 1320 1316 1312 1308 1303 1299
1418 1416 1414 1412 1411 1411 1410 1410 1410 1409 1409 1408 1407 1406 1404 1402 1400 1398 1394 1392 1388 1384 1379 1374 1370 1366 1361 1358 1353 1348 1344 1340 1335 1331 1328 1324 1320 1317 1313 1309 1306 1302 1298 1294
1412 1410 1408 1406 1405 1404 1404 1404 1404 1404 1403 1402 1402 1402 1400 1397 1394 1392 1389 1385 1381 1377 1372 1368 1363 1358 1354 1349 1345 1341 1337 1333 1328 1324 1321 1317 1313 1310 1307 1303 1299 1295 1292 1288
1405 1403 1401 1400 1399 1399 1399 1399 1399 1399 1398 1397 1397 1397 1395 1391 1388 1385 1382 1378 1374 1369 1365 1360 1356 1351 1346 1342 1338 1334 1330 1325 1321 1318 1314 1310 1307 1304 1300 1297 1293 1289 1286 1283
1399 1397 1396 1395 1395 1395 1395 1395 1394 1394 1393 1393 1393 1392 1389 1386 1382 1378 1374 1370 1366 1362 1358 1353 1348 1343 1339 1335 1331 1326 1322 1317 1314 1310 1306 1303 1300 1296 1293 1289 1286 1282 1279 1276
1392 1391 1391 1390 1390 1390 1391 1391 1390 1391 1390 1389 1387 1385 1382 1379 1375 1371 1367 1363 1359 1355 1350 1346 1341 1336 1332 1327 1322 1318 1313 1309 1305 1302 1299 1295 1292 1288 1285 1282 1279 1276 1273 1270